DECAYED

NOAA 16 DEB, 42395 (Decayed)

Orbit data source: Space-Track

NOAA 16 DEB, 42395 was space debris in SSO originally from a launch on Thu, 21 Sep 2000 UTC launched from the Air Force Western Test Range (AFWTR). Debris objects in space refer to the collection of defunct objects orbiting the Earth. Examples of debris include non-operational satellites, rocket bodies, and fragments generated from explosions, collisions, or faulty payload assembly.

Not visible in the next 10 days
Identifier
42395, 2000-055SP
Orbit
Decayed
Country
Flag of USUS
Related business
Manufacturer
Unknown
Mission
Decayed spacecraft
Bus & Motor
Unknown
Mass
Unknown
Launch date (UTC)
2000-09-21 (26 years ago)
Launch vehicle
Unknown
Launch site
Air Force Western Test Range (AFWTR)
Object type
Payload
Rocket body
Debris
Shape & HBR
Unknown shape, 0.1 m
Radar Cross Section
Medium (>0.1 m² and <1 m²)

Expand to show TLE details & history
Last TLE update: 1 year ago

TLE from 1 year ago
0 NOAA 16 DEB
1 42395U 00055SP  25117.47031552  .00841345  00000-0  23437-1 0  9991
2 42395  98.8538 301.9485 0017063 265.7917  94.1371 15.34156009477153
Epoch: 2025-04-27T11:17Z
TLE epoch observation values (Epoch: 2025-04-27T11:17:15.260Z)
Latitude
-0.00008°
Longitude
-83.0633°
Altitude
467.355 km
Speed
7.632 km/s
True Right ascension
20h 07m 47s
True Declination
0° 00' 00"
Sunlit
Object was in daylight at epoch
Visualization orbit readout
Latitude
Unknown
Longitude
Unknown
Altitude
Unknown
Speed
Unknown
Apparent Right ascension
Unknown
Apparent Declination
Unknown
Sunlit
N/A
Visualization observer readout
Local Sidereal Time
16:01:35
Azimuth
Unknown
Elevation
Unknown
Doppler factor
Unknown
Orbital elements
Apogee altitude
472.112 km
Perigee altitude
448.775 km
Semi-major axis
6,838.581 km
Eccentricity
0.00171
Inclination
98.8538°
RAAN
301.9485°
Arg. of periapsis
265.7917°
True anomaly
94.33209°
Mean anomaly
94.1371°
Eccentric anomaly
94.2346°
Mean motion
3.8379 °/min
Orbital period
93.8 mins
BSTAR
0.023437
Loading maneuver chart data...
Computing Atmospheric mass density...

Documentation

Showing up to 5 results
|